Regional Weather Roundup
Issued by NWS

Home | Current Version | Previous Version | Text Only | Print | Product List | Glossary On
Versions: 1 2 3 4 5 6 7 8 9 10 11 12 13 14 15 16 17 18 19 20 21 22 23 24 25 26 27 28 29 30 31 32 33 34 35 36 37 38 39 40 41 42 43 44 45 46 47 48 49 50
000
ASUS43 KLOT 092112
RWRIL

ILLINOIS REGIONAL WEATHER ROUNDUP
NATIONAL WEATHER SERVICE CHICAGO/ROMEOVILLE IL
300 PM CST FRI DEC 09 2016

NOTE: "FAIR" INDICATES FEW OR NO CLOUDS BELOW 12,000 FEET WITH NO
SIGNIFICANT WEATHER AND/OR OBSTRUCTIONS TO VISIBILITY.

* THESE STATIONS ARE NOT UNDER NWS QUALITY CONTROL. THEY ALSO MAY NOT
  REPORT WEATHER SUCH AS PRECIPITATION OR FOG.

ILZ001-002-007-009-015-016-024-092200-
NORTHWEST ILLINOIS

CITY           SKY/WX    TMP DP  RH WIND       PRES   REMARKS
MOLINE         PTSUNNY   24  13  62 W8        30.55S WCI  15
STERLING*      PTSUNNY   24  16  71 W9        30.54R WCI  14
SAVANNA*       MOSUNNY   24  11  58 W9        30.53R WCI  14
$$

ILZ003-004-008-010-011-017-018-092200-
NORTH CENTRAL ILLINOIS

CITY           SKY/WX    TMP DP  RH WIND       PRES   REMARKS
ROCKFORD       PTSUNNY   23  13  65 W10       30.52R WCI  12
FREEPORT*      MOSUNNY   22  13  68 NW8       30.53R WCI  12
ROCHELLE*      PTSUNNY   23  14  69 W9        30.52R WCI  13
DE KALB*       PTSUNNY   22  14  70 W9        30.51R WCI  12
$$

ILZ005-006-012>014-019>023-092200-
NORTHEAST ILLINOIS

CITY           SKY/WX    TMP DP  RH WIND       PRES   REMARKS
CHICAGO-OHARE  PTSUNNY   25  13  60 W13       30.49S WCI  14
CHICAGO-MIDWAY PTSUNNY   25  11  55 W9        30.51R WCI  15
AURORA         PTSUNNY   23  14  68 W10       30.52R WCI  12
LANSING*       CLOUDY    24  15  68 W9        30.51S WCI  15
JOLIET*        CLOUDY    25  15  64 W7        30.53R WCI  18
WAUKEGAN       MOSUNNY   25  10  53 W7        30.47R WCI  17
DUPAGE AIRPORT MOSUNNY   23  12  62 W9        30.50R WCI  13
KANKAKEE*      CLOUDY    25  14  63 W10       30.53S WCI  15
WHEELING       PTSUNNY   26  11  52 W9        30.50S WCI  17
MORRIS*        CLOUDY    24  15  67 NW9       30.53R WCI  15
ROMEOVILLE*    CLOUDY    23  17  78 W12       30.52R WCI  12
NORTHERLY ISL    N/A     26  14  60 W7          N/A  WCI  19
$$

LMZ740>746-092200-
SOUTHERN LAKE MICHIGAN

STATION/POSITION SKY/WX   TEMP    WIND        PRES    VSBY  WAVE
                          AIR SEA DIR/SP/G                  HT/PER
                          (F)     (DEG/KT/KT) (MB)    (MI)  (FT/S)
HARRISON CRIB              26     260/ 13/ 15   N/A
BURNHAM HARBOR             26     240/  3/ 11   N/A
CALUMET HARBOR             25     250/  7/ 10 1032.1R
BURNS HARBOR               26     270/ 11/ 15 1032.8S
$$

ILZ025>027-034>036-040-047-049-050-058-095>099-092200-
WEST-CENTRAL ILLINOIS

CITY           SKY/WX    TMP DP  RH WIND       PRES   REMARKS
QUINCY         MOSUNNY   23  13  65 NW3       30.56F
GALESBURG*     CLOUDY    23  15  69 W9        30.54S WCI  13
MACOMB*        MOSUNNY   23  13  66 W5        30.58S WCI  17
JACKSONVILLE*  CLOUDY    24  14  66 W6        30.58S WCI  17
PITTSFIELD*    CLOUDY    24  14  65 W6        30.58S WCI  17
$$

ILZ028>032-037-038-041>044-048-051>054-059>061-092200-
CENTRAL ILLINOIS

CITY           SKY/WX    TMP DP  RH WIND       PRES   REMARKS
PONTIAC        CLOUDY    26  16  64 W9        30.55R WCI  17
BLOOMINGTON    CLOUDY    24  15  68 W8        30.52F WCI  15
DECATUR        CLOUDY    23  14  68 W10       30.56S WCI  12
PEORIA         PTSUNNY   25  12  58 W6        30.55S WCI  18
LACON*         CLOUDY    25  14  64 NW3       30.54S
LINCOLN*       CLOUDY    24  15  68 W5        30.55F WCI  18
SPRINGFIELD    CLOUDY    25  14  63 W7        30.57S WCI  17
TAYLORVILLE    CLOUDY    23  15  70 CALM      30.58R
$$

ILZ033-039-045-046-055>057-062-063-092200-
EAST-CENTRAL ILLINOIS

CITY           SKY/WX    TMP DP  RH WIND       PRES   REMARKS
CHAMPAIGN      CLOUDY    25  12  58 NW9       30.54S WCI  15
RANTOUL*       FLURRIES  27  18  69 W7        30.53S WCI  20
MATTOON        FLURRIES  24  16  71 W6        30.54S WCI  17
PARIS*         CLOUDY    26  16  64 NW7       30.54F WCI  19
$$

ILZ079-100>102-092200-
SOUTHWEST ILLINOIS

CITY           SKY/WX    TMP DP  RH WIND       PRES   REMARKS
ALTON          PTSUNNY   25  14  63 SW6       30.59F WCI  18
BELLEVILLE     SUNNY     30  12  46 NW7       30.57F WCI  23
CAHOKIA*       SUNNY     29  10  45 VRB5      30.59F WCI  24
SPARTA*        SUNNY     29  13  50 W6        30.60S WCI  23
$$

ILZ064>066-069>071-074>076-080>082-084>086-088>090-092>094-092200-
SOUTH-CENTRAL ILLINOIS

CITY           SKY/WX    TMP DP  RH WIND       PRES   REMARKS
CARBONDALE     SUNNY     31  14  49 W7        30.59F WCI  24
CAIRO*         SUNNY     31  16  53 SW7       30.60S WCI  25
EFFINGHAM*     CLOUDY    26  17  70 W6        30.59S WCI  19
MARION         MOSUNNY   32  14  47 W12       30.60S WCI  23
CENTRALIA*     CLOUDY    28  16  62 W9        30.58F WCI  19
SALEM*         CLOUDY    28  15  58 W9        30.60S WCI  19
METROPOLIS*    SUNNY     33  16  49 W3        30.60S
$$

ILZ067-068-072-073-078-083-087-091-092200-
SOUTHEAST ILLINOIS

CITY           SKY/WX    TMP DP  RH WIND       PRES   REMARKS
LAWRENCEVILLE  CLOUDY    27  14  58 W7        30.58S WCI  19
FLORA*         CLOUDY    29  16  57 W13       30.60R WCI  19
FAIRFIELD*     CLOUDY    29  15  54 W3        30.58R
HARRISBURG*    MOSUNNY   31  16  54 W8        30.60R WCI  24
ROBINSON*      CLOUDY    26  14  61 W5        30.59R WCI  20
CARMI*         CLOUDY    29  16  57 W8        30.59R WCI  21
$$

ABBREVIATIONS USED IN REMARKS
   TC - TEMPERATURE IN CELSIUS
  WCI - WIND CHILL INDEX
   HX - HEAT INDEX
  VSB - VISIBILITY
$$




USA.gov is the U.S. government's official web portal to all federal, state and local government web resources and services.